Probability
0 0 0 0 0 0 0 0 0 0 0 0 0 0 0 0 0 0 0 0 0 0 0 0 0 0 0 0 0 0 0 0 0 0 0 0 0 0 0 0 0 0 0 0
0 0 0 0 0 0 0 0 0 0 0 0 0 0 0 0 0 0 0 0 0 0 0 0 0 0 0 0 0 0 0 0 0 0 0 0 0 0 0 0 0 0 0 0
0 0 0 0 0 0 0 0 0 0 0 0 0 0 0 0 0 0 0 0 0 0 0 0 0 0 0 0 0 0 0 0 0 0 0 0 0 0 0 0 0 0 0 0
0 0 0 0 0 0 0 0 0 0 0 0 0 0 0 0 0 0 0 0 0 0 0 0 0 0 0 0 0 0 0 0 0 0 0 0 0 0 0 0 0 0 0 0
0 0 0 0 0 0 0 0 0 0 0 0 0 0 0 0 0 0 0 0 0 0 0 0 0 0 0 0 0 0 0 0 0 0 0 0 0 0 0 0 0 0 0 0
0 0 0 0 0 0 0 0 0 0 0 0 0 0 0 0 0 0 0 0 0 0 0 0 0 0 0 0 0 0 0 0 0 0 0 0 0 0 0 0 0 0 0 0
0 0 0 0 0 0 0 0 0 0 0 0 0 0 0 0 0 0 0 0 0 0 0 0 0 0 0 0 0 0 0 0 0 0 0 0 0 0 0 0 0 0 0 0
0 0 0 0 0 0 0 0 0 0 0 0 0 0 0 0 0 0 0 0 0 0 0 0 0 0 0 0 0 0 0 0 0 0 0 0 0 0 0 0 0 0 0 0
0 0 0 0 0 0 0 0 0 0 0 0 0 0 0 0 0 0 0 0 0 0 0 0 0 0 0 0 0 0 0 0 0 0 0 0 0 0 0 0 0 0 0 0
0 0 0 0 0 0 0 0 0 0 0 0 0 0 0 0 0 0 0 0 0 0 0 0 0 0 0 0 0 0 0 0 0 0 0 0 0 0 0 0 0 0 0 0
0 0 0 0 0 0 0 0 0 0 0 0 0 0 0 0 0 0 0 0 0 0 0 0 0 0 0 0 0 0 0 0 0 0 0 0 0 0 0 0 0 0 0 0
0 0 0 0 0 0 0 0 0 0 0 0 0 0 0 0 0 0 0 0 0 0 0 0 0 0 0 0 0 0 0 0 0 0 0 0 0 0 0 0 0 0 0 0
0 0 0 0 0 0 0 0 0 0 0 0 0 0 0 0 0 0 0 0 0 0 0 0 0 0 0 0 0 0 0 0 0 0 0 0 0 0 0 0 0 0 0 0
0 0 0 0 0 0 0 0 0 0 0 0 0 0 0 0 0 0 0 0 0 0 0 0 0 0 0 0 0 0 0 0 0 0 0 0 0 0 0 0 0 0 0 0
0 0 0 0 0 0 0 0 0 0 0 0 0 0 0 0 0 0 0 0 0 0 0 0 0 0 0 0 0 0 0 0 0 0 0 0 0 0 0 0 0 0 0 0
0 0 0 0 0 0 0 0 0 0 0 0 0 0 0 0 0 0 0 0 0 0 0 0 0 0 0 0 0 0 0 0 0 0 0 0 0 0 0 0 0 0 0 0
0 0 0 0 0 0 0 0 0 0 0 0 0 0 0 0 0 0 0 0 0 0 0 0 0 0 0 0 0 0 0 0 0 0 0 0 0 0 0 0 0 0 0 0
0 0 0 0 0 0 0 0 0 0 0 0 0 0 0 0 0 0 0 0 0 0 0 0 0 0 0 0 0 0 0 0 0 0 0 0 0 0 0 0 0 0 0 0
0 0 0 0 0 0 0 0 0 0 0 0 0 0 0 0 0 0 0 0 0 0 0 0 0 0 0 0 0 0 0 0 0 0 0 0 0 0 0 0 0 0 0 0
0 0 0 0 0 0 0 0 0 0 0 0 0 0 0 0 0 0 0 0 0 0 0 0 0 0 0 0 0 0 0 0 0 0 0 0 0 0 0 0 0 0 0 0
0 0 0 0 0 0 0 0 0 0 0 0 0 0 0 0 0 0 0 0 0 0 0 0 0 0 0 0 0 0 0 0 0 0 0 0 0 0 0 0 0 0 0 0
0 0 0 0 0 0 0 0 0 0 0 0 0 0 0 0 0 0 0 0 0 0 0 0 0 0 0 0 0 0 0 0 0 0 0 0 0 0 0 0 0 0 0 0
0 0 0 0 0 0 0 0 0 0 0 0 0 0 0 0 0 0 0 0 0 0 0 0 0 0 0 0 0 0 0 0 0 0 0 0 0 0 0 0 0 0 0 0
0 0 0 0 0 0 0 0 0 0 0 0 0 0 0 0 0 0 0 0 0 0 0 0 0 0 0 0 0 0 0 0 0 0 0 0 0 0 0 0 0 0 0 0
0 0 0 0 0 0 0 0 0 0 0 0 0 0 0 0 0 0 0 0 0 0 0 0 0 0 0 0 0 0 0 0 0 0 0 0 0 0 0 0 0 0 0 0
0 0 0 0 0 0 0 0 0 0 0 0 0 0 0 0 0 0 0 0 0 0 0 0 0 0 0 0 0 0 0 0 0 0 0 0 0 0 0 0 0 0 0 0
Wind_Speed
6 4 6 5 5 6 8 9 13 13 9 6 10 16 18 13 5 4 5 5 4 5 4 2 8 11 12 12 12 14 14 14 12 10 11 11 11 8 7 8 11 13 12 13
6 7 3 4 4 5 8 10 12 10 8 11 13 15 13 5 1 2 5 6 6 6 7 4 2 7 10 11 11 12 13 14 13 11 9 7 7 6 7 7 10 13 14 14
8 4 2 3 6 8 9 8 8 10 11 9 7 9 2 5 7 7 7 7 7 6 6 5 2 4 7 9 11 10 12 12 12 10 6 5 5 5 8 10 10 12 14 15
6 1 2 4 7 6 8 4 6 8 8 6 6 6 6 4 8 8 8 7 7 6 5 5 3 2 5 7 8 9 10 10 11 11 10 11 11 14 14 9 8 10 14 15
5 2 1 5 4 3 5 7 8 7 5 6 6 4 7 3 6 7 6 6 6 6 6 4 2 1 3 5 6 7 8 9 10 12 12 12 13 13 7 8 10 12 12 15
10 1 0 2 2 3 6 9 11 5 2 5 2 2 6 2 4 4 5 6 6 7 7 6 4 1 1 3 4 5 7 8 9 11 12 14 16 13 10 11 11 11 10 12
5 7 3 0 5 4 4 6 4 1 3 3 2 2 6 1 6 5 4 4 5 6 6 6 6 4 1 2 4 5 7 8 8 10 12 14 16 14 15 14 12 11 10 11
4 3 5 4 1 3 3 3 3 4 4 6 4 5 5 2 6 6 4 5 5 6 5 5 5 4 3 1 3 5 7 8 8 10 12 12 13 11 12 14 13 12 12 12
4 2 3 2 1 2 4 1 2 3 6 6 6 6 5 3 5 4 4 5 5 5 5 5 5 4 4 2 1 4 7 8 8 10 11 11 13 13 14 13 13 12 12 10
4 5 2 4 2 3 3 5 2 3 4 5 7 6 3 2 3 3 4 5 5 5 5 5 4 4 3 3 3 3 5 7 8 8 9 9 11 12 13 12 14 14 14 12
3 4 2 4 6 6 5 3 4 4 4 4 6 6 3 4 2 3 4 4 4 4 3 3 4 5 5 4 4 4 5 5 5 6 7 8 9 10 11 12 14 13 12 12
1 3 5 6 1 3 1 3 4 4 6 5 7 9 5 1 3 4 5 4 3 2 2 3 4 6 6 6 6 6 5 5 5 5 6 7 8 8 9 11 12 11 12 12
1 2 5 3 2 1 2 4 5 5 5 5 7 11 4 5 6 5 5 5 4 4 3 3 5 6 7 7 7 7 6 5 5 5 6 7 8 8 9 10 10 10 11 11
2 4 6 8 9 6 7 7 7 7 7 9 12 16 15 13 9 6 6 6 6 5 4 4 5 6 7 7 7 7 7 6 6 6 6 8 9 9 9 10 9 9 10 11
2 5 8 12 12 11 14 15 13 13 14 16 18 19 18 9 5 6 7 8 7 7 6 6 7 7 8 8 8 8 8 7 7 7 8 9 9 9 9 9 9 9 9 10
4 5 7 11 11 12 17 18 16 16 15 16 17 16 6 3 5 7 8 9 9 8 8 8 9 9 9 9 9 8 8 8 7 8 9 10 10 10 10 9 9 9 9 9
5 4 4 6 6 10 12 12 11 8 7 7 9 6 4 5 6 7 8 8 8 8 9 10 10 9 9 9 9 9 8 8 8 9 10 11 11 10 9 9 9 9 9 9
6 5 4 5 5 9 11 5 4 5 5 6 6 5 6 6 6 6 7 7 9 10 10 9 9 9 9 9 9 9 8 9 9 10 11 11 10 10 9 9 10 10 9 9
2 4 4 3 5 11 9 4 4 3 4 4 5 6 8 8 8 6 6 9 9 9 10 9 9 9 9 10 9 9 9 10 10 12 11 10 9 10 10 10 11 10 9 9
2 2 3 4 5 8 6 2 3 3 3 5 7 8 9 9 9 7 8 10 10 10 9 9 9 10 10 10 9 10 12 12 12 12 11 10 10 11 12 12 11 10 9 9
3 3 5 6 6 10 3 2 2 2 4 5 7 7 8 6 7 9 11 10 9 9 10 10 10 9 9 10 10 12 13 13 12 12 11 11 10 11 12 11 10 10 8 8
6 6 7 6 6 9 1 2 1 4 7 7 8 8 8 9 9 10 10 10 10 10 10 10 10 10 10 10 11 14 14 14 13 12 12 11 11 10 10 11 10 9 8 8
6 6 4 6 7 3 3 4 5 6 7 7 8 9 9 10 10 11 10 10 10 10 10 10 11 12 11 10 11 15 16 14 13 12 12 11 11 10 10 10 11 9 8 7
4 4 5 7 6 7 8 8 8 8 8 9 9 9 9 9 10 11 10 10 10 10 10 10 11 14 15 13 12 13 15 14 13 13 12 11 11 11 10 8 7 8 7 7
6 6 6 10 10 9 6 8 10 10 9 9 9 8 8 9 11 10 10 10 10 10 10 10 11 14 16 15 14 13 13 13 13 13 12 11 10 11 10 9 8 9 8 9
5 7 7 8 6 7 8 8 9 9 9 8 9 9 8 8 10 10 10 9 10 12 12 12 12 14 16 15 15 13 12 12 13 12 11 9 9 9 9 10 9 11 13 17
Wind_Direction
231 244 268 304 353 341 325 303 296 294 304 333 294 290 295 302 317 333 336 342 340 322 311 237 187 182 177 178 181 182 185 187 186 191 196 200 207 206 204 202 200 199 198 198
269 253 288 3 350 302 285 286 291 299 343 325 290 288 286 279 53 41 25 15 13 360 354 1 141 163 171 177 183 185 188 188 193 198 199 201 200 206 211 210 209 204 202 200
273 285 50 332 303 289 286 288 312 324 326 284 291 304 310 107 80 68 55 40 33 20 9 4 63 149 165 179 186 192 192 192 194 191 184 192 199 210 215 214 214 210 206 205
281 116 48 305 290 306 295 350 333 318 325 310 327 305 292 121 78 62 51 43 38 28 26 19 31 149 180 191 186 190 192 193 191 188 195 198 206 217 220 216 215 212 212 212
279 59 305 291 328 351 292 322 288 279 289 287 256 242 278 110 71 59 49 41 43 36 32 26 19 204 195 187 185 190 195 200 194 196 202 208 221 228 227 219 221 218 217 216
248 186 173 319 328 248 292 290 268 225 267 266 212 229 285 48 89 69 51 45 39 32 30 25 27 37 177 178 183 190 201 212 205 204 208 214 225 228 227 226 227 223 220 218
239 180 150 219 288 209 260 315 332 335 233 244 112 257 257 122 110 104 79 57 45 39 33 22 17 6 327 196 198 200 210 223 217 215 218 222 227 229 233 234 233 230 228 224
296 176 159 182 313 339 313 316 333 310 303 316 316 255 254 124 127 123 106 82 57 46 35 25 21 12 2 291 210 208 218 228 224 223 227 229 230 230 236 236 235 235 235 230
328 3 113 94 49 285 295 289 52 312 282 270 258 252 266 143 120 104 83 65 54 45 34 22 16 18 8 355 266 222 223 231 228 227 230 232 232 233 237 237 236 240 241 235
321 301 203 139 190 224 287 324 307 253 286 295 286 286 280 11 19 42 40 46 52 49 30 14 4 357 345 330 300 266 237 235 234 229 229 236 236 237 239 238 239 240 240 236
293 279 263 181 208 200 180 211 229 258 269 270 286 271 323 340 1 30 38 51 56 54 22 0 352 346 338 333 316 294 269 258 251 241 239 242 245 243 243 243 244 243 242 236
238 300 277 261 53 61 151 251 245 255 270 274 285 276 274 258 70 61 49 35 38 39 7 355 350 343 336 333 324 315 302 285 272 260 255 255 256 255 252 252 252 247 245 240
13 269 289 275 64 50 221 233 239 263 279 258 256 267 294 344 1 31 33 12 4 359 345 348 349 338 332 328 321 318 318 315 304 290 276 271 268 263 259 258 258 253 249 245
2 258 245 265 288 309 286 270 251 242 251 258 249 271 293 309 329 5 14 1 351 336 332 341 337 329 325 319 318 318 317 313 310 307 295 283 275 269 265 264 262 259 254 250
221 256 262 272 285 291 285 280 271 258 257 264 273 279 290 314 353 8 1 350 338 328 334 340 334 325 320 319 318 317 313 309 309 305 297 288 283 280 275 272 268 264 259 255
216 264 281 275 277 280 279 272 268 266 262 263 272 279 300 16 17 0 349 334 324 329 339 336 329 322 320 318 315 314 309 306 307 302 294 291 287 283 277 273 271 268 265 260
209 226 279 278 298 307 275 260 253 242 241 259 275 294 5 6 4 347 326 319 329 340 335 327 322 319 316 314 312 309 304 306 305 297 292 290 287 285 281 278 278 274 270 263
248 261 269 285 310 250 247 276 275 271 282 302 309 347 14 1 342 318 314 342 344 336 328 322 317 314 310 308 307 304 306 306 302 297 293 291 292 293 293 291 286 282 275 268
256 219 232 250 266 275 272 297 344 327 305 354 357 357 351 341 328 317 353 357 334 324 320 316 313 311 310 308 308 311 310 306 301 297 295 297 300 300 298 293 288 285 281 275
345 233 227 227 240 257 276 61 17 353 288 24 10 351 342 347 327 314 343 333 323 319 315 313 311 309 309 310 315 315 309 304 299 298 299 301 301 299 296 292 290 286 280 277
159 185 216 236 246 263 298 103 19 293 299 356 353 342 339 327 297 309 324 321 316 312 312 312 311 309 307 312 316 308 304 300 300 301 301 299 296 294 293 293 290 288 283 280
186 199 205 205 223 256 84 46 345 302 335 347 348 345 332 318 313 316 317 316 315 314 312 312 311 307 307 311 311 305 302 301 301 300 299 298 296 296 298 295 293 289 286 283
217 223 225 210 225 282 28 355 340 354 349 350 344 335 327 319 316 317 315 313 312 310 310 312 310 308 307 307 305 302 302 303 303 302 300 299 298 297 296 295 294 293 287 281
267 262 265 279 286 320 335 345 356 359 349 343 338 330 327 318 315 313 311 310 310 310 311 311 310 308 307 306 300 297 301 304 303 302 301 300 300 299 296 291 287 286 284 280
288 312 295 285 298 311 333 355 354 350 345 338 331 325 321 315 311 310 310 311 311 310 305 304 303 303 304 305 304 303 303 305 304 303 301 301 298 297 297 291 284 282 271 272
250 264 271 285 332 329 328 348 353 343 335 328 323 320 318 314 309 310 308 306 306 305 304 304 302 301 303 305 304 304 306 306 306 305 303 300 299 297 294 293 291 281 277 286